Location: Corralito
(10.2667°N, 66.9500°W)
Time: 08:03:39
(UTC+00:00)

Haruka - Pass Details

Date: 02 December 2023
Orbit: 529 x 21179 km, 31.2° (Epoch: 24 February)

Event Time Altitude Azimuth Distance (km) Brightness Sun altitude
Rises 21:25:14 0° 297° (WNW) 9,654 9.2 8.0°
Reaches altitude 10° 21:30:07 10° 295° (WNW) 9,826 9.3 6.9°
Maximum altitude 22:54:17 61° 246° (WSW) 18,998 10.3 -12.3°
Drops below altitude 10° 02:38:55 10° 147° (SSE) 9,389 8.4 -63.6°
Sets 02:45:09 0° 137° (SE) 8,833 8.4 -65.0°
